CZ-4 DEB, 26119

Orbit data source: Space-Track

CZ-4 DEB, 26119 is space debris in SSO originally from a launch on Thu, 14 Oct 1999 UTC launched from the Taiyaun Space Center, China (TSC). Debris objects in space refer to the collection of defunct objects orbiting the Earth. Examples of debris include non-operational satellites, rocket bodies, and fragments generated from explosions, collisions, or faulty payload assembly.

Loading next visibility...
Identifier
26119, 1999-057F
Orbit
SSO
Country
Flag of CNCN / PRC
Related business
Manufacturer
Unknown
Mission
Spacecraft
Bus & Motor
Unknown
Mass
Unknown
Launch date (UTC)
1999-10-14 (27 years ago)
Launch vehicle
Unknown
Launch site
Taiyaun Space Center, China (TSC)
Object type
Payload
Rocket body
Debris
Shape & HBR
Unknown shape, 0.1 m
Radar Cross Section
Medium (>0.1 m² and <1 m²)

Expand to show TLE details & history
Last TLE update: 5 hours ago

TLE from 5 hours ago
0 CZ-4 DEB
1 26119U 99057F   26119.52852147  .00000359  00000-0  31843-3 0  9991
2 26119  99.3936  16.5474 0487234 272.0334 213.8912 13.47455748279222
Epoch: 2026-04-29T12:41Z
TLE epoch observation values (Epoch: 2026-04-29T12:41:04.255Z)
Latitude
55.96278°
Longitude
162.89786°
Altitude
1,397.816 km
Speed
7.017 km/s
True Right ascension
14h 02m 36s
True Declination
55° 48' 58"
Sunlit
Object was in daylight at epoch
Visualization orbit readout
Latitude
Unknown
Longitude
Unknown
Altitude
Unknown
Speed
Unknown
Apparent Right ascension
Unknown
Apparent Declination
Unknown
Sunlit
N/A
Visualization observer readout
Local Sidereal Time
00:44:04
Azimuth
Unknown
Elevation
Unknown
Doppler factor
Unknown
Orbital elements
Apogee altitude
1,442.247 km
Perigee altitude
715.581 km
Semi-major axis
7,457.051 km
Eccentricity
0.04872
Inclination
99.3936°
RAAN
16.5474°
Arg. of periapsis
272.0334°
True anomaly
210.92926°
Mean anomaly
213.8912°
Eccentric anomaly
212.39554°
Mean motion
3.37049 °/min
Orbital period
106.81 mins
BSTAR
0.00031843
Loading maneuver chart data...
Computing Atmospheric mass density...
Loading historical data...
Loading historical data...
Loading historical data...
Loading historical data...
Loading historical data...
Loading historical data...
Loading historical data...

Documentation

Showing up to 5 results
|